Regional Weather Roundup
Issued by NWS

Home | Current Version | Previous Version | Graphics & Text | Print | Product List | Glossary On
Versions: 1 2 3 4 5 6 7 8 9 10 11 12 13 14 15 16 17 18 19 20 21 22 23 24 25 26 27 28 29 30 31 32 33 34 35 36 37 38 39 40 41 42 43 44 45 46 47 48 49 50
000
ASUS43 KMKX 281300
RWRWI

WISCONSIN REGIONAL WEATHER ROUNDUP
NATIONAL WEATHER SERVICE MILWAUKEE/SULLIVAN WI
800 AM CDT FRI JUL 28 2017

NOTE: "FAIR" INDICATES FEW OR NO CLOUDS BELOW 12,000 FEET WITH NO
SIGNIFICANT WEATHER AND/OR OBSTRUCTIONS TO VISIBILITY.

WIZ001-002-006>008-014>016-023>028-281400-
NORTHWEST WISCONSIN

CITY           SKY/WX    TMP DP  RH WIND       PRES   REMARKS
SUPERIOR ARPT  NOT AVBL
ASHLAND        SUNNY     61  60  97 CALM      30.15S
HAYWARD        SUNNY     63  58  83 N5        30.14R
SIREN          SUNNY     62  59  91 CALM      30.12S
CUMBERLAND     SUNNY     61  57  88 CALM      30.13R
RICE LAKE      SUNNY     62  59  90 CALM      30.14R
CHETEK         SUNNY     64  57  80 E3        30.12R
LADYSMITH      SUNNY     62  55  77 E3        30.15R
EAU CLAIRE     NOT AVBL
MENOMONIE      SUNNY     65  60  82 CALM      30.11R
NEW RICHMOND   SUNNY     64  60  85 E5        30.11S
OSCEOLA        SUNNY     64  64 100 CALM      30.14R
$$

WIZ003>005-009-010-017-018-281400-
NORTH CENTRAL WISCONSIN

CITY           SKY/WX    TMP DP  RH WIND       PRES   REMARKS
MANITOWISH WTR SUNNY     60  60 100 CALM      30.15S
ARBOR VITAE    SUNNY     60  57  91 CALM      30.14S
WOODRUFF       SUNNY     60  57  91 CALM      30.14S
RHINELANDER    SUNNY     62  56  80 CALM      30.15R
EAGLE RIVER    SUNNY     57  57  99 CALM      30.14S
LAND O LAKES   SUNNY     62  54  76 NE3       30.16S
PHILLIPS       SUNNY     59  57  92 CALM      30.14S
TOMAHAWK         N/A     55  54  97 CALM      30.15S
MEDFORD        SUNNY     59  54  84 E5        30.12S
MERRILL        SUNNY     57  55  94 CALM      30.13S
$$

WIZ029-030-035-036-043>047-281400-
CENTRAL WISCONSIN

CITY           SKY/WX    TMP DP  RH WIND       PRES   REMARKS
WAUSAU         SUNNY     64  53  67 NE8       30.10S
MOSINEE        SUNNY     61  55  82 NE8       30.12R
MARSHFIELD     SUNNY     65  56  72 NE7       30.10S
STEVENS POINT  SUNNY     60  55  83 NE8       30.11R
WAUPACA        SUNNY     63  57  81 N5        30.09S
WAUTOMA        SUNNY     65  54  67 N10       30.09S
WISC RAPIDS    SUNNY     67  55  65 NE6       30.11R
CAMP DOUGLAS   NOT AVBL
$$

WIZ011>013-019>022-031-037>040-048>050-281400-
NORTHEAST WISCONSIN

CITY           SKY/WX    TMP DP  RH WIND       PRES   REMARKS
ANTIGO         SUNNY     59  55  85 N7        30.13S
SHAWANO        SUNNY     65  56  73 NE9       30.09S
OCONTO         SUNNY     60  54  81 N8        30.07S
STURGEON BAY     N/A     64  58  80 NE8       30.08R
GREEN BAY      SUNNY     63  58  83 N7        30.08R
MANITOWOC      NOT AVBL
APPLETON       SUNNY     63  52  67 N9        30.07R
CLINTONVILLE   SUNNY    N/A N/A N/A N9        30.09S
OSHKOSH        SUNNY     65  54  67 N8        30.06S
$$

WIZ032>034-041-042-053>061-281400-
SOUTHWEST WISCONSIN

CITY           SKY/WX    TMP DP  RH WIND       PRES   REMARKS
LA CROSSE      SUNNY     70  64  81 SE5       30.07R
SPARTA         SUNNY     65  59  80 E8        30.09S
VIROQUA        SUNNY     66  63  89 E6        30.09R
BOSCOBEL       MOSUNNY   68  64  87 NE5       30.07R
PRAIRIE DU CHI PTSUNNY   64  63  97 CALM      30.06R FOG
PLATTEVILLE    MOSUNNY   65  60  82 NE7       30.05S
$$

WIZ056-057-062-063-064-067-068-281400-
SOUTH CENTRAL WISCONSIN

CITY           SKY/WX    TMP DP  RH WIND       PRES   REMARKS
REEDSBURG      SUNNY     64  57  78 NE5       30.08R
BARABOO/DELLS  SUNNY     63  55  76 NE6       30.08R
LONE ROCK      NOT AVBL
MINERAL POINT  MOSUNNY   66  61  82 NE5       30.06R
MADISON        MOSUNNY   66  59  78 N12       30.05S
MIDDLETON      SUNNY     66  62  86 NE6       30.07R
WATERTOWN      SUNNY     64  59  85 N8        30.04S
MONROE         SUNNY     64  55  72 N9        30.05R
JANESVILLE     MOSUNNY   66  57  72 NE12G17   30.03R
$$

WIZ051-052-058>065-066-070>072-281400-
SOUTHEAST WISCONSIN

CITY           SKY/WX    TMP DP  RH WIND       PRES   REMARKS
MILWAUKEE      PTSUNNY   68  64  87 N15       30.02R
WAUKESHA       SUNNY     64  59  82 N8        30.04R
MILWAUKEE/TIMM MOSUNNY   64  57  77 N9        30.04R
RACINE         CLOUDY    69  65  86 N14G23    30.03R
KENOSHA        PTSUNNY   69  63  81 NE13      30.01S
FOND DU LAC    SUNNY     67  57  70 N13       30.07R
SHEBOYGAN      SUNNY     65  60  84 N8        30.05R
WEST BEND      SUNNY     63  59  88 N7        30.05R
JUNEAU         SUNNY     63  56  78 N8        30.07R
$$

LSZ147-162-281400-
LAKE SUPERIOR

STATION/POSITION TIME  TEMP    WIND        PRES    WAVE
                       AIR SEA DIR/SP/G            HT/PER
                 (UTC) (F)     (DEG/KT/KT) (MB)    (FT/S)
W MID LAKE BUOY  1150   58 54  110/  6/  6 1019.6S   0
DEVILS ISLAND    1200   63     110/  1/  2 1020.4R
SAXON HARBOR     1240   61     190/  2/  5 1020.3R
$$

LMZ867-665-643>646-281400-
LAKE MICHIGAN

STATION/POSITION TIME  TEMP    WIND        PRES    WAVE
                       AIR SEA DIR/SP/G            HT/PER
                 (UTC) (F)     (DEG/KT/KT) (MB)    (FT/S)
CHAMBERS ISLAND  1240   66      10/ 13/ 16 1017.9R
S GREEN BAY BUOY 1230   63 71   10/ 14/ 16 1018.1R
N MID LAKE BUOY  1150   65 66   40/ 10/ 10 1018.2R   1/ 3
NORTHPORT PIER   1240   65      10/  7/  8 1018.6R
KEWAUNEE LAKESHO 1230   64      20/  4/ 12 1017.1R
SHEBOYGAN LAKESH 1200   64     360/ 15/ 18 1016.9R
PORT WASHINGTON  1240   67     350/  7/ 10 1017.9R
MILWAUKEE LAKESH 1230   67      20/ 16/ 18   N/A
S MID LAKE BUOY  1150   70 72   40/ 14/ 16 1015.3R   3/ 5
KENOSHA   LAKESH 1200   68      20/ 21/ 25 1015.9
$$

TC  - TEMPERATURE IN CELSIUS
VSB - VISIBILITY IN STATUTE MILES
WCI - WIND CHILL INDEX
HX  - HEAT INDEX





USA.gov is the U.S. government's official web portal to all federal, state and local government web resources and services.